Погода в Красноармейском

Россия / Самарская область     52°43′00″N   50°01′59″E
темп.,
°C
ветер,
м/с
пор.,
м/с
влажн.,
%
обл.,
%
осадки,
мм/ч
давл.,
гПа
погр.,
м
13 апреля, вт
вт1301:00+11вюв337919 0.0 103430
04:00+10вюв338433 0.0 103531
07:00+9вюв357371 0.0 103572
10:00+15вюв4650100 0.0 1035436
13:00+19юв564452 0.0 1034946
16:00+19юв56355 0.0 10331012
19:00+16юв34555 0.0 103258
22:00+12юв47655 0.0 1032103
14 апреля, ср
ср1401:00+10юв37685 0.0 103293
04:00+8вюв37905 0.0 1031123
07:00+8вюв48945 0.0 1030206
10:00+13вюв68715 0.0 1029542
13:00+16вюв57585 0.0 1027907
16:00+18вюв56525 0.0 10261222
19:00+15вюв36640 0.0 1025123
22:00+12юв35720 0.0 102580
15 апреля, чт
чт1501:00+10вюв35740 0.0 102368
04:00+9юв34790 0.0 102358
07:00+9юв35784 0.0 102296
10:00+15юв45560 0.0 1021404
13:00+19ююв45420 0.0 10201001
16:00+21ююв45376 0.0 10191708
19:00+17юв365370 0.0 101898
22:00
16 апреля, пт
пт1601:00+12вюв235798 0.0 101718
04:00+10вюв226233 0.0 101718
07:00+10в236583 0.0 101653
10:00+15в3447100 0.0 1016336
13:00+19в333681 0.0 1016998
16:00+20св213187 0.0 10152114
19:00+17св334489 0.0 101526
22:00+14с376372 0.0 1016207
17 апреля, сб
сб1701:00+11св5108138 0.0 1017237
04:00+9св598863 0.0 1018316
07:00+8св598568 0.0 1019378
10:00+10св577124 0.0 1019624
13:00+13св67546 0.0 10191126
16:00+13св77365 0.0 10201425
19:00+11св610440 0.0 1021531
22:00+8св410560 0.0 1022304